User: anonymous   Login
Location: Unspecified
(0.0000°N, 0.0000°E)
Time: 00:11:59
(UTC+00:00)
Language:

YAOGAN 7 - Orbit

View from above orbital plane
View from above orbital plane
View from above satellite
View from above satellite

Ground track
Ground track

The orbit data is extracted from the following two-line orbital elements,

1 36110U 09069A   18112.44379206  .00000067  00000-0  18028-4 0  9999
2 36110  98.2456 281.5178 0023543 203.9114 156.1011 14.75120371450472
Epoch (UTC): 22 April 2018 10:39:03
Eccentricity: 0.0023543
inclination: 98.2456°
perigee height: 628 km
apogee height: 661 km
right ascension of ascending node: 281.5178°
argument of perigee: 203.9114°
revolutions per day: 14.75120371
mean anomaly at epoch: 156.1011°
orbit number at epoch: 45047

The dashed part of the orbit path shows where the satellite is in the earth's shadow,  

DLR